Tracking 29892 objects as of 21-Nov-2024
HD Live streaming from Space Station
objects crossing your sky now

NTS 2

Track NTS 2 now!
NTS 2 is classified as:


NORAD ID: 10091
Int'l Code: 1977-053A
Perigee: 20,026.1 km
Apogee: 20,371.9 km
Inclination: 63.5 °
Period: 718.4 minutes
Semi major axis: 26569 km
RCS: 3.8343 m2 (large)
Launch date: June 23, 1977
Source: United States (US)
Launch site: AIR FORCE WESTERN TEST RANGE (AFWTR)
Your satellite tracking list
Your tracking list is empty




NASA's NSSDC Master Catalog

Two Line Element Set (TLE):
1 10091U 77053A   24325.68750060 -.00000029  00000-0  00000+0 0  9992
2 10091  63.4955 299.2745 0065089 229.1873 308.5693  2.00454381347176
Source of the keplerian elements: AFSPC